Location: Newark
(55.6995°N, 26.4650°E)
Time: 14:42:22
(UTC+00:00)

N. Korean satellite - Visible Passes

Search period start: 18 September 2020 00:00
Search period end: 28 September 2020 00:00
Orbit: 455 x 503 km, 97.2° (Epoch: 17 September)

Date Brightness Start Highest point End Pass type
(mag) Time Alt. Az. Time Alt. Az. Time Alt. Az.
19 Sep 9.3 03:13:21 10° NE 03:16:32 26° E 03:19:39 10° SSE visible
20 Sep 9.9 02:48:01 10° NE 02:50:17 15° E 02:52:31 10° SE visible
23 Sep 9.7 03:02:54 10° NE 03:05:45 21° E 03:08:34 10° SE visible
24 Sep 10.1 02:37:55 10° ENE 02:39:27 12° E 02:40:59 10° ESE visible
26 Sep 9.0 03:17:56 10° NNE 03:21:11 28° E 03:24:22 10° SSE visible
27 Sep 9.8 02:52:30 10° NE 02:54:56 17° E 02:57:19 10° SE visible
